Meteo pe oră la Bolshie Nyrsi

Astăzi, 9 Mai, Duminică

Timp Temperatura Precipitaţii Vânt Presiune Umiditate
00:00 +11°C° 0 mm 3 m/s 751 mmHg 77%
01:00 +10°C° 0 mm 3 m/s 751 mmHg 76%
02:00 +10°C° 0 mm 4 m/s 751 mmHg 76%
03:00 +10°C° 0 mm 4 m/s 751 mmHg 74%
04:00 +11°C° 0 mm 4 m/s 750 mmHg 73%
05:00 +11°C° 0 mm 4 m/s 750 mmHg 71%
06:00 +12°C° 0 mm 4 m/s 750 mmHg 69%
07:00 +14°C° 0 mm 5 m/s 750 mmHg 63%
08:00 +16°C° 0 mm 5 m/s 750 mmHg 58%
09:00 +19°C° 0 mm 5 m/s 750 mmHg 53%
10:00 +20°C° 0 mm 6 m/s 750 mmHg 50%
11:00 +21°C° 0 mm 6 m/s 750 mmHg 47%
12:00 +22°C° 0 mm 6 m/s 750 mmHg 43%
13:00 +22°C° 0 mm 6 m/s 750 mmHg 44%
14:00 +22°C° 0 mm 6 m/s 750 mmHg 45%
15:00 +22°C° 0 mm 5 m/s 750 mmHg 46%
16:00 +21°C° 0 mm 5 m/s 750 mmHg 51%
17:00 +20°C° 0 mm 4 m/s 750 mmHg 57%
18:00 +19°C° 0 mm 3 m/s 750 mmHg 63%
19:00 +18°C° 0 mm 3 m/s 751 mmHg 64%
20:00 +17°C° 0 mm 3 m/s 751 mmHg 65%
21:00 +17°C° 0 mm 3 m/s 751 mmHg 66%
22:00 +16°C° 0 mm 3 m/s 751 mmHg 66%
23:00 +16°C° 0 mm 3 m/s 751 mmHg 65%

Mâine, 10 Mai, Luni

Timp Temperatura Precipitaţii Vânt Presiune Umiditate
00:00 +14°C° 0 mm 3 m/s 751 mmHg 65%
01:00 +14°C° 0 mm 3 m/s 752 mmHg 66%
02:00 +14°C° 0 mm 3 m/s 752 mmHg 68%
03:00 +13°C° 0 mm 3 m/s 752 mmHg 70%
04:00 +14°C° 0 mm 3 m/s 753 mmHg 69%
05:00 +15°C° 0 mm 2 m/s 753 mmHg 68%
06:00 +16°C° 0 mm 2 m/s 754 mmHg 68%
07:00 +17°C° 0 mm 2 m/s 754 mmHg 63%
08:00 +18°C° 0 mm 2 m/s 754 mmHg 58%
09:00 +20°C° 0 mm 3 m/s 754 mmHg 53%
10:00 +21°C° 0 mm 3 m/s 755 mmHg 50%
11:00 +21°C° 0 mm 3 m/s 755 mmHg 48%
12:00 +22°C° 0 mm 3 m/s 755 mmHg 45%
13:00 +24°C° 0 mm 2 m/s 755 mmHg 44%
14:00 +24°C° 0 mm 2 m/s 756 mmHg 42%
15:00 +24°C° 0 mm 1 m/s 756 mmHg 41%
16:00 +24°C° 0 mm 1 m/s 756 mmHg 45%
17:00 +23°C° 0 mm 1 m/s 756 mmHg 49%
18:00 +22°C° 0 mm 1 m/s 756 mmHg 54%
19:00 +20°C° 0 mm 2 m/s 757 mmHg 56%
20:00 +19°C° 0 mm 2 m/s 757 mmHg 58%
21:00 +17°C° 0 mm 2 m/s 757 mmHg 60%
22:00 +17°C° 0 mm 2 m/s 758 mmHg 63%
23:00 +16°C° 0 mm 2 m/s 758 mmHg 66%

Poimâine, 11 Mai, Marţi

Timp Temperatura Precipitaţii Vânt Presiune Umiditate
00:00 +14°C° 0 mm 3 m/s 758 mmHg 69%
01:00 +14°C° 0 mm 3 m/s 758 mmHg 72%
02:00 +14°C° 0 mm 3 m/s 758 mmHg 76%
03:00 +13°C° 0 mm 3 m/s 759 mmHg 80%
04:00 +14°C° 0 mm 3 m/s 759 mmHg 79%
05:00 +15°C° 0 mm 2 m/s 759 mmHg 78%
06:00 +16°C° 0 mm 2 m/s 759 mmHg 77%
07:00 +17°C° 0 mm 2 m/s 760 mmHg 70%
08:00 +19°C° 0 mm 2 m/s 760 mmHg 62%
09:00 +21°C° 0 mm 2 m/s 760 mmHg 55%
10:00 +23°C° 0 mm 2 m/s 760 mmHg 51%
11:00 +24°C° 0 mm 2 m/s 761 mmHg 47%
12:00 +25°C° 0 mm 2 m/s 761 mmHg 44%
13:00 +25°C° 0 mm 1 m/s 761 mmHg 42%
14:00 +25°C° 0 mm 1 m/s 761 mmHg 41%
15:00 +25°C° 0 mm 1 m/s 760 mmHg 39%
16:00 +24°C° 0 mm 1 m/s 761 mmHg 44%
17:00 +24°C° 0 mm 1 m/s 761 mmHg 48%
18:00 +23°C° 0 mm 1 m/s 761 mmHg 53%
19:00 +22°C° 0 mm 1 m/s 761 mmHg 56%
20:00 +21°C° 0 mm 1 m/s 761 mmHg 58%
21:00 +20°C° 0 mm 1 m/s 761 mmHg 61%
22:00 +19°C° 0 mm 1 m/s 761 mmHg 63%
23:00 +17°C° 0 mm 2 m/s 761 mmHg 65%

12 Mai, Miercuri

Timp Temperatura Precipitaţii Vânt Presiune Umiditate
00:00 +16°C° 0 mm 2 m/s 762 mmHg 67%
01:00 +16°C° 0 mm 2 m/s 762 mmHg 67%
02:00 +15°C° 0 mm 2 m/s 762 mmHg 68%
03:00 +15°C° 0 mm 2 m/s 762 mmHg 68%
04:00 +15°C° 0 mm 2 m/s 762 mmHg 68%
05:00 +16°C° 0 mm 2 m/s 762 mmHg 68%
06:00 +17°C° 0 mm 2 m/s 762 mmHg 68%
07:00 +18°C° 0 mm 3 m/s 762 mmHg 63%
08:00 +20°C° 0 mm 3 m/s 762 mmHg 58%
09:00 +21°C° 0 mm 4 m/s 762 mmHg 53%
10:00 +22°C° 0 mm 3 m/s 762 mmHg 49%
11:00 +24°C° 0 mm 3 m/s 762 mmHg 46%
12:00 +25°C° 0 mm 3 m/s 762 mmHg 42%
13:00 +25°C° 0 mm 3 m/s 762 mmHg 41%
14:00 +25°C° 0 mm 2 m/s 762 mmHg 40%
15:00 +25°C° 0 mm 2 m/s 762 mmHg 39%
16:00 +25°C° 0 mm 2 m/s 762 mmHg 44%
17:00 +24°C° 0 mm 2 m/s 762 mmHg 48%
18:00 +23°C° 0 mm 1 m/s 762 mmHg 53%
19:00 +21°C° 0 mm 2 m/s 762 mmHg 54%
20:00 +19°C° 0 mm 2 m/s 762 mmHg 54%
21:00 +18°C° 0 mm 2 m/s 762 mmHg 55%
22:00 +17°C° 0 mm 2 m/s 762 mmHg 56%
23:00 +16°C° 0 mm 2 m/s 762 mmHg 56%

13 Mai, Joi

Timp Temperatura Precipitaţii Vânt Presiune Umiditate
00:00 +16°C° 0 mm 2 m/s 762 mmHg 57%
01:00 +15°C° 0 mm 2 m/s 762 mmHg 59%
02:00 +15°C° 0 mm 2 m/s 762 mmHg 61%
03:00 +15°C° 0 mm 2 m/s 762 mmHg 62%
04:00 +16°C° 0 mm 2 m/s 762 mmHg 63%
05:00 +16°C° 0 mm 2 m/s 762 mmHg 63%
06:00 +17°C° 0 mm 2 m/s 762 mmHg 63%
07:00 +19°C° 0 mm 2 m/s 762 mmHg 57%
08:00 +20°C° 0 mm 2 m/s 762 mmHg 51%
09:00 +22°C° 0 mm 3 m/s 762 mmHg 45%
10:00 +24°C° 0 mm 3 m/s 762 mmHg 42%
11:00 +25°C° 0 mm 3 m/s 762 mmHg 39%
12:00 +26°C° 0 mm 3 m/s 762 mmHg 36%
13:00 +26°C° 0 mm 3 m/s 762 mmHg 35%
14:00 +26°C° 0 mm 3 m/s 762 mmHg 35%
15:00 +26°C° 0 mm 3 m/s 761 mmHg 35%
16:00 +25°C° 0 mm 3 m/s 761 mmHg 41%
17:00 +24°C° 0 mm 2 m/s 761 mmHg 47%
18:00 +23°C° 0 mm 2 m/s 761 mmHg 52%
19:00 +22°C° 0 mm 1 m/s 761 mmHg 53%
20:00 +21°C° 0 mm 1 m/s 761 mmHg 54%
21:00 +19°C° 0 mm 1 m/s 761 mmHg 55%
22:00 +19°C° 0 mm 1 m/s 761 mmHg 56%
23:00 +18°C° 0 mm 1 m/s 761 mmHg 58%

14 Mai, Vineri

Timp Temperatura Precipitaţii Vânt Presiune Umiditate
00:00 +18°C° 0 mm 1 m/s 761 mmHg 59%
01:00 +17°C° 0 mm 2 m/s 761 mmHg 61%
02:00 +16°C° 0 mm 2 m/s 761 mmHg 62%
03:00 +16°C° 0 mm 2 m/s 761 mmHg 63%
04:00 +17°C° 0 mm 2 m/s 761 mmHg 64%
05:00 +18°C° 0 mm 2 m/s 761 mmHg 64%
06:00 +18°C° 0 mm 2 m/s 761 mmHg 65%
07:00 +20°C° 0 mm 2 m/s 761 mmHg 59%
08:00 +22°C° 0 mm 3 m/s 761 mmHg 53%
09:00 +24°C° 0 mm 3 m/s 761 mmHg 48%
10:00 +25°C° 0 mm 4 m/s 761 mmHg 44%
11:00 +26°C° 0 mm 4 m/s 761 mmHg 40%
12:00 +26°C° 0 mm 4 m/s 761 mmHg 36%
13:00 +27°C° 0 mm 4 m/s 760 mmHg 36%
14:00 +27°C° 0 mm 4 m/s 760 mmHg 36%
15:00 +27°C° 0 mm 4 m/s 760 mmHg 36%
16:00 +26°C° 0 mm 4 m/s 760 mmHg 42%
17:00 +25°C° 0 mm 3 m/s 759 mmHg 48%
18:00 +24°C° 0 mm 2 m/s 759 mmHg 54%
19:00 +23°C° 0 mm 2 m/s 759 mmHg 56%
20:00 +20°C° 0 mm 2 m/s 759 mmHg 58%
21:00 +19°C° 0 mm 3 m/s 759 mmHg 60%
22:00 +18°C° 0 mm 3 m/s 759 mmHg 61%
23:00 +18°C° 0 mm 2 m/s 759 mmHg 62%
Arată mai mult

Formular de consimțământ

Meteoprog și furnizorii noștri de servicii pot stoca și accesa date personale, precum cookies, identificatori de dispozitiv sau alte tehnologii similare pe dispozitivul dumneavoastră și procesa astfel de date pentru a personaliza conținutul și reclamele, dar și pentru a oferi caracteristici de social media și pentru a analiza traficul.

  • Stocarea și/sau accesarea informațiilor pe dispozitivul dumneavoastră

    Cookies, identificatori de dispozitiv sau alte informații pot fi stocate sau accesate pe dispozitiv în scopurile indicate mai sus.

  • Reclame și conținut personalizat, evaluarea reclamelor și a conținutului, informații despre audiențe și dezvoltarea produselor

    Reclamele și conținutul pot fi personalizate pe baza unui profil. Pot fi adăugate date suplimentare pentru a personaliza mai bine reclamele și conținutul. Performanța reclamelor și conținutului poate fi măsurată. Pot fi obținute informații despre utilizatorii care au văzut reclamele și conținutul. Aceste date pot fi utilizate pentru a dezvolta sau îmbunătăți experiența utilizatorilor, sistemele și software-ul.

Dând clic pe ‘Sunt de acord’, permiteți utilizarea cookie-urilor menționate, a identificatorilor de dispozitiv, balizelor web sau altor tehnologii similare. Setările pot fi modificate din browser-ul dispozitivului dumneavoastră.

În anumite scopuri, interesele legitime pot prima asupra consimțământului. Puteți citi mai multe informații în acest sens în Politica privind Confidențialitatea Datelor și Cookie.